User: anonymous   Login
Location: Fort Wayne
(41.1310°N, 85.1290°W)
Time: 23:29:46
(UTC-04:00)
Language:

Cosmos 2056 Rocket - Orbit

View from above orbital plane
View from above orbital plane
View from above satellite
View from above satellite

Ground track
Ground track

The orbit data is extracted from the following two-line orbital elements,

1 20433U 90004B   14297.44357302  .00000261  00000-0  98629-4 0  8543
2 20433 074.0362 330.6289 0042116 334.1482 125.2501 14.35692440296445
Epoch (UTC): 24 October 2014 10:38:44
Eccentricity: 0.0042116
inclination: 74.0362°
perigee height: 742 km
apogee height: 803 km
right ascension of ascending node: 330.6289°
argument of perigee: 334.1482°
revolutions per day: 14.35692440
mean anomaly at epoch: 125.2501°
orbit number at epoch: 29644

The dashed part of the orbit path shows where the satellite is in the earth's shadow,  

DLR